TITAN 3C TRANSTAGE DEB, 2799

Orbit data source: Space-Track

TITAN 3C TRANSTAGE DEB, 2799 is space debris in LEO originally from a launch on Fri, 15 Oct 1965 UTC launched from the Air Force Eastern Test Range (AFETR). Debris objects in space refer to the collection of defunct objects orbiting the Earth. Examples of debris include non-operational satellites, rocket bodies, and fragments generated from explosions, collisions, or faulty payload assembly.

Loading next visibility...
TITAN 3C TRANSTAGE DEB details
Identifier
2799, 1965-082KX
Orbit
LEO
Last TLE update1 day ago
Origin
Flag of USUSAF SSD (US)
ManufacturerUnknown
MissionSpacecraft
Bus & MotorUnknown
MassUnknown
Launch date (UTC)
1965-10-15 (59 years ago)
Launch vehicleUnknown
Launch site
Air Force Eastern Test Range (AFETR)
Object type
Payload
Rocket body
Debris
Shape & HBRUnknown
Radar Cross SectionSmall (<0.1 m²)

Expand to show TLE details & history

TLE from 1 day ago
0 TITAN 3C TRANSTAGE DEB
1 02799U 65082KX  25035.52991021  .00003158  00000-0  48051-3 0  9990
2 02799  32.0556 101.5337 0034073  18.7684 112.4719 14.72232375 82709
Epoch: 2025-02-04T12:43Z
Definitive object data (Epoch: 2025-02-04T12:43:04.242Z)
Latitude23.48302°
Longitude-87.80072°
Altitude661.731 km
Speed7.526 km/s
True Right ascension15h 51m 36s
True Declination23° 21' 21"
Sunlit
Object was in daylight at TLE epoch
Visualization TLE readout
Latitude-3.29852°
Longitude122.9892°
Altitude633.766 km
Speed7.554 km/s
Apparent Right ascension07h 12m 11s
Apparent Declination-22° 16' 19"
Sunlit
Object is in full shadow
Visualization observer readout
Local Sidereal Time21:05:17
Azimuth62.084° ENE
Elevation-60.258°
Doppler factor1
Orbital elements
Apogee altitude681.546 km
Perigee altitude633.6 km
Semi-major axis7,035.71 km
Eccentricity0.0034073
Inclination32.0556°
RAAN101.5337°
Arg. of periapsis18.7684°
True anomaly112.83211°
Mean anomaly112.4719°
Eccentric anomaly112.65206°
Mean motion3.67774 °/min
BSTAR0.00048051
Orbital period97.89 mins
Loading maneuver chart data...

TITAN 3C TRANSTAGE DEB Visibility forecast

Observer location: undefined°, undefined

Span
Click to sort rows by Start time (UTC) header in descending order
Start Az.
Max El. time (UTC)
Max El. Az.
Max El.
End time (UTC)
End Az.
7 mins2025-02-06 08:20:03.450Z217.074° SW2025-02-06 08:23:03.450Z172.67° S22.212°2025-02-06 08:27:03.450Z113.453° SE
6 mins2025-02-06 10:04:03.450Z228.073° WSW2025-02-06 10:06:03.450Z190.347° SSW26.951°2025-02-06 10:10:03.450Z123.124° SE
5 mins2025-02-06 11:47:03.450Z233.895° WSW2025-02-06 11:49:03.450Z203.227° SW19.928°2025-02-06 11:52:03.450Z155.872° SSE
|